Location: Little Chesterford
(52.0500°N, 0.1833°E)
Time: 10:08:29
(UTC+00:00)

Cosmos 972 Rocket - Pass Details

Date: 26 September 2023
Orbit: 713 x 1151 km, 75.8° (Epoch: 09 December)

Event Time Altitude Azimuth Distance (km) Brightness Sun altitude
Rises 20:48:15 0° 338° (NNW) 3,547 8.3 -26.7°
Reaches altitude 10° 20:50:53 10° 341° (NNW) 2,533 7.4 -27.0°
Enters shadow 20:56:09 66° 31° (NNE) 884 4.2 -27.7°
